This is the latest recevied weather packets stored in our database for station/object KE2HEH. If no packets are shown the sender has not sent any weather packets the latest 10 day(s).
| Time | Temp. | Humidity | Pressure | Rain* | Wind** | Luminosity | Snow |
|---|---|---|---|---|---|---|---|
| 1778289691 | 11.67° C | 87% | 1013.7 hPa | 0 mm | - | 0 W/m² | - |
| 1778289389 | 11.67° C | 87% | 1013.6 hPa | 0 mm | - | 0 W/m² | - |
| 1778289086 | 11.67° C | 87% | 1013.5 hPa | 0 mm | - | 0 W/m² | - |
| 1778288784 | 11.67° C | 87% | 1013.3 hPa | 0 mm | - | 0 W/m² | - |
| 1778288480 | 11.67° C | 87% | 1013.5 hPa | 0 mm | - | 0 W/m² | - |
| 1778288178 | 11.67° C | 87% | 1013.3 hPa | 0 mm | - | 0 W/m² | - |
| 1778287873 | 11.67° C | 87% | 1013.3 hPa | 0 mm | - | 0 W/m² | - |
| 1778287570 | 11.11° C | 87% | 1013.1 hPa | 0 mm | - | 0 W/m² | - |
| 1778287267 | 11.67° C | 87% | 1013.1 hPa | 0 mm | - | 0 W/m² | - |
| 1778286965 | 11.67° C | 87% | 1013 hPa | 0 mm | - | 0 W/m² | - |
| 1778286662 | 11.67° C | 86% | 1013.1 hPa | 0 mm | - | 0 W/m² | - |
| 1778286360 | 11.67° C | 86% | 1013.1 hPa | 0 mm | - | 0 W/m² | - |
| 1778286057 | 11.67° C | 87% | 1013.2 hPa | 0 mm | - | 0 W/m² | - |
| 1778285755 | 11.11° C | 87% | 1013.1 hPa | 0 mm | - | 0 W/m² | - |
| 1778285450 | 11.67° C | 87% | 1012.9 hPa | 0 mm | - | 0 W/m² | - |
| 1778285149 | 11.67° C | 87% | 1013 hPa | 0 mm | - | 0 W/m² | - |
| 1778284844 | 11.67° C | 87% | 1013.1 hPa | 0 mm | - | 0 W/m² | - |
| 1778284542 | 11.67° C | 87% | 1013 hPa | 0 mm | - | 2 W/m² | - |
| 1778284238 | 11.67° C | 87% | 1012.9 hPa | 0 mm | - | 4 W/m² | - |
| 1778283936 | 11.67° C | 86% | 1012.8 hPa | 0 mm | - | 7 W/m² | - |
| 1778283633 | 11.67° C | 86% | 1012.7 hPa | 0 mm | - | 10 W/m² | - |
| 1778283332 | 11.67° C | 85% | 1012.7 hPa | 0 mm | - | 14 W/m² | - |
| 1778283029 | 12.22° C | 85% | 1012.5 hPa | 0 mm | - | 19 W/m² | - |
| 1778282726 | 12.22° C | 85% | 1012.5 hPa | 0 mm | - | 26 W/m² | - |
| 1778282423 | 12.22° C | 84% | 1012.6 hPa | 0 mm | - | 26 W/m² | - |
* Rain latest hour (hover to see other rain measurements)
** Current wind speed in m/s (hover to see current wind gust speed)